This is the latest recevied weather packets stored in our database for station/object LX0WX-13. If no packets are shown the sender has not sent any weather packets the latest 10 day(s).
| Time | Temp. | Humidity | Pressure | Rain* | Wind** | Luminosity | Snow |
|---|---|---|---|---|---|---|---|
| 1777967753 | 15° C | 72% | 1005.5 hPa | 0 mm | - | - | - |
| 1777967453 | 15.56° C | 76% | 1005.6 hPa | 0 mm | - | - | - |
| 1777967153 | 14.44° C | 79% | 1005.6 hPa | 0 mm | - | - | - |
| 1777966853 | 13.89° C | 79% | 1005.6 hPa | 0 mm | - | - | - |
| 1777966553 | 13.33° C | 81% | 1005.6 hPa | 0 mm | - | - | - |
| 1777966253 | 13.33° C | 83% | 1005.6 hPa | 0 mm | - | - | - |
| 1777965953 | 12.78° C | 84% | 1005.6 hPa | 0 mm | - | - | - |
| 1777965653 | 12.78° C | 85% | 1005.7 hPa | 0 mm | - | - | - |
| 1777965353 | 12.22° C | 84% | 1005.7 hPa | 0 mm | - | - | - |
| 1777965053 | 12.22° C | 85% | 1005.7 hPa | 0 mm | - | - | - |
| 1777964753 | 12.22° C | 86% | 1005.8 hPa | 0 mm | - | - | - |
| 1777964453 | 12.22° C | 86% | 1005.9 hPa | 0 mm | - | - | - |
| 1777964153 | 11.67° C | 86% | 1005.8 hPa | 0 mm | - | - | - |
| 1777963853 | 11.67° C | 86% | 1005.9 hPa | 0 mm | - | - | - |
| 1777963553 | 11.67° C | 86% | 1005.8 hPa | 0 mm | - | - | - |
| 1777963253 | 11.67° C | 86% | 1005.9 hPa | 0 mm | - | - | - |
| 1777962953 | 11.67° C | 87% | 1005.8 hPa | 0 mm | - | - | - |
| 1777962653 | 11.67° C | 87% | 1005.9 hPa | 0 mm | - | - | - |
| 1777962353 | 11.67° C | 89% | 1005.8 hPa | 0 mm | - | - | - |
| 1777962053 | 11.67° C | 89% | 1005.8 hPa | 0 mm | - | - | - |
| 1777961753 | 11.67° C | 90% | 1006 hPa | 0 mm | - | - | - |
| 1777961453 | 12.22° C | 93% | 1006 hPa | 0 mm | - | - | - |
| 1777961154 | 12.22° C | 96% | 1006 hPa | 0 mm | - | - | - |
| 1777960853 | 11.67° C | 96% | 1005.9 hPa | 0 mm | - | - | - |
| 1777960553 | 11.67° C | 96% | 1006 hPa | 0 mm | - | - | - |
* Rain latest hour (hover to see other rain measurements)
** Current wind speed in m/s (hover to see current wind gust speed)